sat.trackr.live / text

‹ back to catalog

ICEYE-X75

NORAD 68497 · 2026-067CK

PAYLOAD ACTIVE UNKNOWN

§ Identity

Operator
Country
POL
Launch date
2026-03-30
Launch site
AFWTR
Launch vehicle
Mass (kg)
RCS (m²)

External: N2YO · Heavens-Above · Gunter

§ Orbital elements

Epoch: 2026-09-20T02:53:18.449088Z

Period
96.50 min
Inclination
97.7700°
Eccentricity
0.0002107
Mean motion
14.92287116 rev/d
Perigee alt
589.3 km
Apogee alt
592.3 km
Semi-major
6,968.9 km
B*
6.3695e-5
RAAN
220.0322°
Arg perigee
39.9587°
Mean anomaly
320.1787°
Rev number
2,588

§ Raw data

ICEYE-X751 68497U 26067CK  26263.12035242  .00000594  00000+0  63695-4 0  99932 68497  97.7700 220.0322 0002107  39.9587 320.1787 14.92287116 25880

JSON: /api/v1/satellites/68497 · /tle

For live sub-satellite position, see the globe view (requires WebGL).

§ Visibility from observer

Set your observer location to see the next 7 days of passes ≥ 10°. The values pass through the URL so the page stays shareable.

No JS? Fill the form by hand. The geolocation button needs JavaScript.

§ Radio — SatNOGS DB

ModeDescriptionDownlinkUplink
FM S-band telemetry 2.264 GHz

1 transmitter · refreshed weekly from db.satnogs.org